ROMMA est une association bénévole à but non lucratif. Votre soutien est indispensable : ADHERER à ROMMA ou FAIRE un DON

Chambon - (38, Isère)

Oisans (2460 m)   Longitude: 06° 10' 42" E   Latitude: 45° 01' 32" N Station partenaire n°803
 

Détail journalier du     <<     >>

Température Humidité Vent Dir Rafale Dir. rafale Neige 1 Neige 2
Heure (°C) (%) (km/h) (km/h) (cm) (cm)
01:00 1.42235SSO63SSO163213
02:00 2.62332SSO60SSO163213
03:00 3.72039SSO99SO163213
04:00 2.62547SSO91SSO163212
05:00 2.52542SSO79SSO163212
06:00 2.82544SSO82SO162212
07:00 2.03051SSO94SO162212
08:00 1.73351SO89SO162212
09:00 0.34746SO88SO162212
10:00 -0.96140SSO79SSO162212
11:00 -1.47136SO107SO163212
12:00 -2.28339SSO98SO163212
13:00 -2.78838SSO79SSO162212
14:00 -5.19636SO85O164216
15:00 -5.99147OSO87OSO162212
16:00 -5.47049OSO92OSO162219
17:00 -6.07333OSO78OSO162217
18:00 -6.98926OSO59OSO162217
19:00 -7.39432SO65SO162217
20:00 -7.59036SO75SO162217
21:00 -7.89325SO54OSO162217
22:00 -7.99223SO49OSO162217
23:00 -8.48923OSO47OSO162217
minuit -8.68323SO38SO162217

Graphique du 04-03-2019

 

Serveur OMMA